Date,TemperatureHighF,TemperatureAvgF,TemperatureLowF,DewpointHighF,DewpointAvgF,DewpointLowF,HumidityHigh,HumidityAvg,HumidityLow,PressureMaxIn,PressureMinIn,WindSpeedMaxMPH,WindSpeedAvgMPH,GustSpeedMaxMPH,PrecipitationSumIn
2013-1-2,31.5,26.8,21.4,15.0,13.2,11.3,66,56,47,30.19,30.04,0,0,0,0.00
2013-1-3,30.6,25.9,20.6,17.7,13.6,12.1,70,60,47,30.20,30.07,0,0,0,0.00
2013-1-4,35.6,32.5,29.6,20.9,19.2,17.2,64,58,51,30.10,29.96,0,0,0,0.00
2013-1-5,40.1,32.8,28.9,22.3,19.4,16.7,72,58,45,30.30,30.04,0,0,0,0.00
2013-1-6,45.1,37.5,30.3,29.4,25.7,21.5,89,64,46,30.21,29.96,12,1,12,0.00
2013-1-7,45.0,38.3,31.2,28.8,25.2,21.2,73,60,42,30.38,30.05,6,2,10,0.00
2013-1-8,46.9,35.9,27.7,29.3,25.7,21.4,79,67,47,30.39,30.32,6,1,13,0.00
2013-1-9,46.3,37.8,28.0,36.3,30.7,24.4,90,76,56,30.37,30.14,10,2,17,0.00
2013-1-10,48.4,41.2,36.6,29.0,24.9,22.8,62,53,38,30.52,30.25,7,2,13,0.00
2013-1-11,43.7,39.1,33.6,42.2,31.2,21.9,98,74,56,30.51,30.07,5,0,8,0.30
2013-1-12,46.4,43.2,39.9,44.7,42.4,39.4,99,97,92,30.15,30.06,4,0,8,0.00
2013-1-13,47.2,44.5,41.5,47.2,44.5,41.4,100,100,99,30.12,29.97,3,0,6,0.00
2013-1-14,53.8,47.9,38.5,52.1,42.4,28.5,100,83,49,30.27,29.86,5,1,11,0.01
2013-1-15,38.4,35.0,32.8,34.3,27.0,-99.9,93,76,64,30.33,30.18,4,-11,8,0.14
2013-1-16,34.3,32.4,31.4,33.2,31.6,30.2,98,97,91,30.19,29.81,5,0,6,0.47
2013-1-17,42.5,36.7,34.3,33.6,28.6,25.7,96,73,56,30.08,29.92,7,3,11,0.00
2013-1-18,34.3,27.6,23.7,27.5,11.7,1.8,76,52,31,30.46,29.99,8,3,20,0.00
2013-1-19,49.2,38.0,25.7,27.5,21.5,9.2,71,52,35,30.39,29.89,8,3,12,0.00
2013-1-20,51.5,40.0,26.9,28.4,20.0,9.3,62,46,22,30.03,29.71,15,6,21,0.00
2013-1-21,30.5,26.0,22.0,18.1,10.4,6.7,73,52,41,30.08,29.85,7,2,11,0.00
2013-1-22,22.6,15.3,9.8,8.4,-3.6,-10.2,54,43,30,30.24,29.85,13,7,21,0.00
2013-1-23,18.2,11.7,7.7,2.3,-2.5,-7.6,70,53,38,30.28,30.18,8,3,12,0.00
2013-1-24,23.2,15.1,8.2,4.1,0.2,-6.7,75,53,27,30.44,30.14,10,3,13,0.00
2013-1-25,21.2,15.0,10.8,13.4,2.9,-3.8,84,60,39,30.46,30.07,6,1,10,0.04
2013-1-26,26.0,18.6,12.9,10.3,7.1,4.0,84,62,42,30.39,30.07,7,2,12,0.00
2013-1-27,34.2,24.0,15.3,13.3,9.1,3.9,67,53,38,30.55,30.39,6,2,11,0.00
2013-1-28,34.0,29.4,23.4,33.2,25.0,12.0,97,84,58,30.49,30.00,3,1,7,0.11
2013-1-29,51.3,43.3,34.3,43.4,40.0,33.4,97,89,73,30.11,30.00,7,1,8,0.00
2013-1-30,63.5,51.6,42.5,58.8,50.4,41.3,100,96,82,30.01,29.29,7,2,13,0.48
2013-1-31,58.6,55.2,53.8,58.3,55.2,53.8,100,100,100,29.29,29.06,7,3,10,0.23
2013-2-27,46.7,44.0,42.2,43.2,36.2,34.5,93,74,70,29.62,29.51,11,3,13,0.14
2013-2-28,43.7,39.6,33.9,34.4,30.3,23.3,84,70,47,29.63,29.54,8,3,12,0.00
2013-3-1,41.9,36.7,32.5,29.6,26.5,23.6,86,67,50,29.80,29.62,6,4,11,0.00
2013-3-2,37.4,32.3,27.7,23.2,20.2,17.2,68,61,51,29.81,29.71,7,4,12,0.00
2013-3-3,35.4,29.6,24.7,17.8,16.3,14.7,69,58,46,29.79,29.70,9,5,12,0.00
2013-3-4,39.4,31.9,26.9,20.5,16.6,13.2,64,54,39,29.93,29.79,11,6,20,0.00
2013-3-5,48.7,35.7,29.4,25.3,16.6,-99.9,68,52,36,30.01,29.92,8,-36,12,0.00
2013-3-6,40.9,37.1,33.1,33.3,28.6,23.9,85,71,60,29.95,29.79,12,7,24,0.00
2013-3-7,45.3,37.9,33.4,29.9,24.7,22.1,84,60,43,30.08,29.93,9,5,12,0.00
2013-3-8,43.2,33.9,28.1,31.2,26.7,21.7,96,76,56,30.23,30.04,8,4,17,0.05
2013-3-9,61.4,43.7,30.0,22.4,19.0,13.4,65,43,16,30.27,30.19,6,2,11,0.00
2013-3-10,56.2,47.9,36.8,33.8,26.4,-99.9,82,48,29,30.32,30.22,6,-18,8,0.00
2013-3-11,56.6,45.2,35.1,47.6,39.1,31.1,100,82,47,30.27,30.01,5,2,11,0.00
2013-3-12,55.9,50.4,41.1,55.2,47.1,31.7,99,89,65,30.00,29.64,8,4,12,1.46
2013-3-13,45.8,38.5,32.8,32.1,22.8,-99.9,81,57,38,29.90,29.79,12,-17,18,0.00
2013-3-14,39.8,33.0,28.0,19.9,11.4,5.2,60,42,26,29.97,29.87,12,8,20,0.00
2013-3-15,48.2,36.8,25.6,29.7,18.8,9.0,56,48,39,30.00,29.70,12,5,16,0.00
2013-3-16,43.4,34.2,30.3,31.7,27.0,20.3,97,77,55,29.91,29.75,4,1,11,0.11
2013-3-17,37.4,31.9,27.2,29.4,20.0,14.6,91,63,44,30.29,29.91,5,1,10,0.00
2013-3-18,34.5,29.4,25.0,32.1,19.6,8.9,100,69,45,30.37,29.93,7,3,12,0.30
2013-3-19,49.4,37.4,32.1,38.5,29.9,15.2,100,79,34,29.92,29.67,11,3,18,0.14
2013-3-20,44.5,36.1,30.2,21.5,15.7,11.9,60,44,27,29.89,29.76,12,6,19,0.00
2013-3-21,37.9,31.5,27.1,27.7,16.3,5.7,92,56,27,29.81,29.64,9,3,11,0.00
2013-3-22,38.9,31.5,25.3,20.3,16.7,8.8,73,55,37,29.90,29.75,11,6,21,0.00
2013-3-23,45.8,36.2,29.6,19.1,17.5,15.7,59,47,31,29.94,29.84,9,5,17,0.00
2013-3-24,47.0,37.9,29.6,24.5,18.0,14.1,59,45,28,29.95,29.67,6,2,8,0.00
2013-3-25,38.4,34.6,32.0,34.1,29.5,23.3,98,83,55,29.66,29.46,7,2,10,0.12
2013-3-26,50.6,40.2,33.7,33.0,29.3,21.9,96,68,34,29.87,29.61,9,3,13,0.00
2013-3-27,51.5,39.7,33.7,29.8,26.3,20.2,78,60,34,30.00,29.87,10,4,17,0.00
2013-3-28,46.7,40.5,32.8,29.1,26.5,24.1,79,58,43,30.12,29.97,7,4,12,0.00
2013-3-29,51.6,43.5,35.1,31.4,26.4,21.6,67,52,34,30.15,30.06,7,3,14,0.00
2013-3-30,57.6,46.4,35.4,28.4,22.4,13.8,71,42,19,30.16,30.04,8,2,13,0.00
2013-3-31,54.9,45.4,36.4,44.6,31.2,20.1,98,60,36,30.09,29.67,9,2,14,0.15
2013-4-1,58.5,45.7,33.9,44.8,33.2,11.0,99,67,27,29.90,29.63,12,5,18,0.00
2013-4-2,42.1,35.3,29.3,14.8,10.0,6.4,48,35,24,30.09,29.91,12,5,19,0.00
2013-4-3,44.5,35.6,29.4,14.7,10.1,5.7,48,35,22,30.31,30.09,11,5,19,0.00
2013-4-4,53.2,39.4,27.1,25.1,15.7,9.1,57,39,25,30.40,30.05,5,2,12,0.00
2013-4-5,62.5,47.9,36.9,27.2,22.3,13.3,65,40,17,30.05,29.72,8,3,12,0.00
2013-4-6,53.4,41.4,30.5,23.7,15.0,9.6,57,36,18,30.29,30.00,6,2,11,0.00
2013-4-7,62.0,49.0,36.4,41.2,31.5,23.6,68,52,37,30.27,29.94,8,3,14,0.00
2013-4-8,76.4,62.2,47.5,48.0,41.7,35.2,77,51,26,30.04,29.91,6,1,9,0.00
2013-4-9,81.8,75.9,64.6,50.5,42.4,35.2,58,32,20,29.94,29.83,12,5,20,0.00
2013-4-10,84.7,70.4,59.2,59.7,53.2,49.9,99,58,32,29.89,29.72,9,3,15,0.85
2013-4-11,60.5,56.7,46.0,60.2,52.5,41.1,99,86,71,29.95,29.72,8,2,11,0.01
2013-4-12,46.4,42.6,40.8,42.2,41.0,39.1,99,94,76,29.93,29.68,9,4,14,0.62
2013-4-13,57.7,48.3,38.8,42.5,35.9,30.6,99,66,38,29.94,29.73,8,2,12,0.00
2013-4-14,60.1,51.0,43.1,35.3,29.4,20.3,67,45,28,30.15,29.94,11,3,18,0.00
2013-4-15,61.6,50.8,43.1,40.0,33.6,27.8,66,52,40,30.32,30.16,6,2,8,0.00
2013-4-16,70.0,58.1,46.1,54.5,47.5,37.6,84,69,55,30.31,30.07,10,3,18,0.00
2013-4-17,71.7,60.9,52.4,57.2,42.0,29.1,96,56,23,30.24,30.06,5,2,12,0.08
2013-4-18,58.5,53.4,47.9,55.7,46.8,37.9,96,79,64,30.27,30.03,7,2,10,0.02
2013-4-19,76.3,64.2,49.7,63.2,59.2,46.0,98,85,61,30.03,29.55,12,4,14,0.88
2013-4-20,54.7,48.4,42.8,46.0,30.7,19.7,91,54,29,30.29,29.68,12,6,19,0.12
2013-4-21,55.5,42.9,32.3,27.9,19.9,-99.9,60,43,24,30.58,30.30,7,-4,11,0.00
2013-4-22,41.8,37.9,34.9,30.7,27.8,26.2,76,67,57,30.60,30.57,4,0,6,0.00
2013-4-24,70.5,65.5,62.3,54.3,51.3,47.6,75,61,48,29.92,29.78,8,3,14,0.00
2013-4-25,63.8,52.0,41.5,54.6,27.2,-99.9,76,42,22,30.24,29.83,12,-6,19,0.00
2013-4-26,66.0,54.6,41.8,34.6,26.9,20.3,65,36,19,30.39,30.24,4,1,11,0.00
2013-4-27,69.7,54.3,41.8,35.3,29.2,22.1,61,40,21,30.42,30.24,3,0,8,0.00
2013-4-28,70.9,58.0,45.3,42.2,34.6,29.3,72,44,27,30.28,30.14,6,1,11,0.00
2013-4-29,54.6,52.1,50.1,53.1,49.1,37.8,99,90,53,30.18,30.10,5,1,7,0.12
2013-4-30,66.7,55.9,47.6,52.5,43.2,23.6,100,68,28,30.30,30.15,4,1,10,0.00
2013-5-1,69.4,55.2,41.2,40.9,32.6,24.9,69,45,21,30.43,30.30,4,1,10,0.00
2013-5-2,73.6,58.5,42.7,44.4,39.9,35.8,91,55,27,30.43,30.28,3,0,5,0.00
2013-5-3,65.7,55.6,46.9,42.2,36.7,27.7,77,52,25,30.41,30.29,4,1,9,0.00
2013-5-4,69.7,55.4,42.1,43.3,39.4,34.4,91,60,29,30.33,30.16,4,1,9,0.00
2013-5-5,66.2,51.7,40.7,41.0,38.5,35.7,91,64,34,30.25,30.15,4,1,8,0.00
2013-5-6,69.9,54.4,40.8,52.3,46.8,38.9,98,78,51,30.23,30.09,2,0,7,0.00
2013-5-7,72.1,59.9,48.7,60.7,53.4,47.7,100,81,56,30.12,30.02,4,1,8,0.03
2013-5-8,71.1,60.6,55.5,59.9,57.5,53.2,98,90,61,30.03,29.87,4,1,7,0.36
2013-5-9,70.5,60.2,54.0,58.0,54.4,51.6,100,83,53,29.94,29.86,4,0,10,0.06
2013-5-10,81.2,68.3,53.7,61.3,55.0,48.8,99,67,34,29.97,29.84,6,1,6,0.24
2013-5-11,72.4,63.6,58.5,65.2,60.7,56.2,99,91,66,29.87,29.66,5,1,13,0.53
2013-5-12,62.0,56.3,45.0,56.0,37.9,21.6,93,54,26,29.94,29.66,9,4,17,0.00
2013-5-13,54.9,46.3,38.1,31.6,27.6,19.1,76,50,27,30.11,29.94,7,2,14,0.00
2013-5-14,62.0,48.1,34.2,31.9,26.5,18.2,84,48,21,30.15,30.00,6,1,10,0.00
2013-5-15,74.2,59.3,45.0,55.8,46.4,27.3,82,63,45,30.04,29.65,5,1,10,0.00
2013-5-16,83.6,68.6,56.8,59.9,53.1,38.0,97,63,27,29.82,29.68,5,1,10,0.00
2013-5-17,75.4,63.4,50.6,44.2,39.6,35.1,71,43,24,30.15,29.83,3,0,7,0.00
2013-5-18,57.2,54.3,52.4,53.7,46.1,39.4,91,74,55,30.25,30.16,0,0,2,0.01
2013-5-19,60.6,57.0,54.6,60.3,56.6,53.7,100,98,91,30.25,30.13,1,0,4,0.15
2013-5-20,79.2,66.3,56.1,66.3,61.5,56.1,100,86,59,30.15,29.93,3,0,7,0.01
2013-5-21,87.6,73.6,61.1,69.7,66.0,60.8,100,80,52,29.94,29.80,5,1,13,0.00
2013-5-22,88.4,75.6,64.4,71.1,67.4,61.1,99,78,46,29.87,29.76,5,1,8,0.00
2013-5-23,77.2,69.5,61.2,69.4,65.9,60.6,99,89,67,29.84,29.71,7,1,12,1.63
2013-5-24,62.2,51.8,43.5,62.2,48.6,36.4,100,89,69,30.00,29.67,5,2,14,0.09
2013-5-25,60.1,50.7,43.2,40.5,36.7,30.8,90,61,36,30.03,29.95,8,4,17,0.05
2013-5-26,69.2,60.0,49.0,38.6,34.4,29.8,59,40,24,30.18,30.01,6,3,13,0.00
2013-5-27,73.1,56.3,41.1,41.6,36.0,31.9,75,49,24,30.24,30.11,5,1,10,0.00
2013-5-28,58.3,56.6,50.6,57.7,53.3,41.8,100,90,56,30.19,30.08,1,0,5,0.31
2013-5-29,87.0,78.8,56.3,67.4,63.2,56.3,100,61,43,30.09,29.98,5,2,10,0.01
2013-5-30,91.9,79.9,68.0,67.7,63.0,56.9,88,60,32,30.10,30.02,5,1,13,0.00
2013-5-31,94.3,79.9,65.6,70.1,62.7,52.0,98,60,25,30.08,29.96,4,0,9,0.00
2013-6-1,91.4,79.2,65.6,69.0,65.9,63.9,98,67,42,29.98,29.85,4,1,8,0.00
2013-6-2,85.3,77.7,71.1,69.4,66.7,65.1,87,70,53,29.85,29.73,6,2,12,0.02
2013-6-3,81.6,71.7,63.3,67.4,63.1,52.2,98,76,48,29.86,29.75,4,1,8,0.19
2013-6-4,76.8,64.2,51.6,51.5,43.6,38.5,75,50,26,30.09,29.87,3,1,7,0.00
2013-6-5,78.8,64.5,49.2,51.8,43.8,36.2,76,49,29,30.18,30.05,2,0,7,0.00
2013-6-6,70.9,60.1,50.9,61.9,54.9,48.8,99,85,51,30.09,29.94,1,0,3,0.25
2013-6-7,62.7,60.4,58.6,62.7,60.4,58.3,100,100,99,29.92,29.60,4,0,12,1.94
2013-6-8,77.7,66.4,57.6,63.9,60.2,57.3,100,82,56,30.03,29.60,4,1,8,0.03
2013-6-9,83.4,70.7,56.5,61.4,57.4,54.4,95,66,38,30.14,30.04,3,0,6,0.00
2013-6-10,70.0,65.2,62.7,70.0,64.4,60.0,100,97,85,30.10,29.74,1,0,7,1.38
2013-6-11,77.5,74.8,66.5,70.0,62.8,59.3,100,67,59,29.73,29.63,7,4,12,0.00
2013-6-12,82.4,78.1,63.3,58.3,55.4,52.1,76,46,36,29.80,29.76,4,1,6,0.00
2013-6-13,67.2,65.3,62.0,64.2,61.2,55.8,90,87,80,29.79,29.39,0,0,0,0.74
2013-6-14,76.1,65.5,52.4,62.8,55.0,50.7,96,71,49,29.89,29.69,4,1,12,0.10
2013-6-15,81.2,73.9,58.6,55.9,52.6,45.6,84,49,31,29.97,29.89,6,1,9,0.00
2013-6-16,82.2,68.9,56.1,65.0,58.0,50.6,95,71,40,29.97,29.76,9,2,13,0.00
2013-6-17,85.7,75.2,63.1,66.1,63.0,55.0,95,68,37,29.88,29.79,7,1,12,0.00
2013-6-18,81.2,69.7,61.2,71.7,65.9,60.9,99,89,64,29.86,29.76,4,0,7,0.06
2013-6-19,79.4,66.0,54.9,60.8,52.7,45.0,99,67,32,30.12,29.85,4,1,9,0.01
2013-6-20,82.0,67.2,52.8,61.1,55.3,51.2,99,69,41,30.23,30.12,3,1,8,0.00
2013-6-21,84.9,71.4,55.2,57.8,53.1,48.2,82,55,32,30.26,30.18,4,1,7,0.00
2013-6-22,85.1,72.4,54.9,65.2,59.8,49.9,95,66,45,30.22,30.07,4,1,8,0.00
2013-6-23,88.4,75.6,62.7,71.0,66.4,61.1,98,75,49,30.15,30.01,5,1,8,0.00
2013-6-24,91.9,75.9,66.4,71.7,68.2,62.4,99,81,40,30.04,29.91,11,1,17,1.01
2013-6-25,90.3,76.0,64.4,72.1,67.0,63.8,100,77,47,29.97,29.78,7,1,12,0.00
2013-6-26,87.8,76.8,67.7,70.1,65.5,62.3,88,69,48,29.83,29.74,5,1,10,0.00
2013-6-27,89.9,76.4,67.4,72.4,69.0,64.8,99,80,49,29.78,29.49,7,0,12,0.52
2013-6-28,85.7,74.7,65.2,70.5,67.4,62.1,99,80,52,29.52,29.42,5,1,8,0.09
2013-6-29,85.3,74.0,63.8,69.5,64.3,59.8,100,75,44,29.65,29.43,4,0,8,0.01
2013-6-30,83.9,74.0,64.9,74.4,68.5,62.8,98,84,66,29.84,29.66,3,0,7,0.08
2013-7-1,78.1,73.4,68.5,74.4,71.8,68.2,100,95,80,29.97,29.82,4,0,6,2.49
2013-7-2,84.5,76.2,71.9,74.0,71.5,68.8,98,86,63,30.13,29.97,5,1,8,0.03
2013-7-3,84.9,76.2,70.5,75.2,71.1,69.0,96,85,66,30.20,30.12,2,0,7,0.17
2013-7-4,89.3,79.7,72.8,73.2,71.6,69.4,98,78,56,30.22,30.11,4,1,8,0.00
2013-7-5,91.2,80.7,70.9,73.7,71.1,67.9,98,75,49,30.17,30.05,6,1,11,0.00
2013-7-6,92.1,81.8,71.7,74.0,71.4,68.6,98,73,47,30.11,29.99,5,1,10,0.00
2013-7-7,92.1,79.1,69.2,74.9,71.0,66.6,98,79,51,30.03,29.91,5,1,8,0.28
2013-7-8,87.0,74.9,66.4,70.4,66.8,62.8,98,78,49,30.02,29.94,4,1,8,0.00
2013-7-9,87.6,75.6,65.6,72.1,68.7,64.1,98,80,55,30.03,29.96,4,0,7,0.01
2013-7-10,85.9,77.6,70.4,74.6,71.6,68.8,99,83,58,29.97,29.77,6,1,10,0.07
2013-7-11,85.5,76.9,71.2,74.0,68.6,59.7,97,77,51,29.88,29.76,1,0,6,0.00
2013-7-12,76.3,70.7,67.4,69.3,64.5,59.3,99,81,66,30.02,29.88,3,0,11,0.38
2013-7-13,84.9,73.7,66.7,74.8,70.8,66.4,100,91,67,30.24,30.01,3,0,6,1.16
2013-7-14,90.3,79.6,71.6,76.0,72.1,66.8,100,80,49,30.31,30.21,3,0,5,0.01
2013-7-15,97.8,83.0,72.4,76.1,71.7,69.5,93,71,41,30.23,30.10,2,0,8,0.00
2013-7-16,95.0,82.2,69.5,73.7,68.9,65.2,93,66,42,30.18,30.09,1,0,6,0.00
2013-7-17,97.4,83.1,70.4,72.5,68.5,64.1,90,64,35,30.17,30.02,1,0,5,0.00
2013-7-18,97.4,85.4,75.2,75.3,71.5,67.9,82,65,41,30.03,29.92,2,0,7,0.00
2013-7-19,94.7,83.3,74.3,78.3,73.6,69.7,95,75,47,29.93,29.76,7,1,11,0.16
2013-7-20,90.8,79.2,72.3,73.4,70.8,68.7,98,77,53,29.80,29.70,7,2,13,0.04
2013-7-21,90.1,77.8,69.5,72.7,69.7,66.3,100,79,48,29.91,29.79,1,0,6,0.01
2013-7-22,87.0,74.1,68.7,74.4,70.9,68.1,99,91,61,29.90,29.74,1,0,6,0.55
2013-7-23,85.9,75.8,68.5,73.1,69.8,66.8,100,83,57,29.74,29.54,5,1,7,1.46
2013-7-24,81.0,72.2,60.3,67.4,61.6,51.2,93,70,48,29.91,29.59,1,0,7,0.00
2013-7-25,72.6,62.9,55.6,61.0,54.9,49.9,95,76,60,30.02,29.90,2,0,7,0.00
2013-7-26,82.8,70.2,58.3,60.2,57.6,53.0,97,68,38,30.03,29.97,2,0,8,0.00
2013-7-27,85.9,71.7,57.2,67.1,61.8,56.6,99,74,48,30.01,29.89,2,0,7,0.00
2013-7-28,78.6,69.7,64.3,73.8,67.3,60.8,99,92,78,29.94,29.85,4,0,8,1.10
2013-7-29,81.0,70.9,61.6,65.9,58.6,49.8,100,70,35,30.08,29.92,5,0,12,0.02
2013-7-30,81.0,68.8,58.0,60.0,56.1,53.1,89,66,41,30.16,30.08,2,0,6,0.00
2013-7-31,83.2,69.7,56.1,65.4,60.0,55.5,100,75,40,30.13,29.99,1,0,2,0.00
2013-8-1,69.4,66.7,63.8,68.6,65.9,63.0,99,97,89,29.99,29.79,1,0,6,0.57
2013-8-2,83.0,72.2,62.8,68.3,62.6,56.1,100,75,42,29.90,29.78,6,1,11,0.01
2013-8-3,74.7,67.7,63.1,66.6,62.3,56.1,98,83,68,29.89,29.82,7,1,11,0.05
2013-8-4,78.8,68.0,57.2,64.0,57.6,51.9,100,73,40,29.97,29.84,3,0,10,0.00
2013-8-5,80.5,65.8,52.9,58.1,51.8,45.8,93,64,31,30.06,29.97,1,0,6,0.00
2013-8-6,81.8,66.7,53.5,62.8,57.7,52.9,100,76,41,30.07,30.00,2,0,10,0.00
2013-8-7,76.1,68.7,62.0,68.4,65.4,59.6,99,90,70,30.08,30.00,1,0,5,0.02
2013-8-8,85.7,74.8,67.9,73.6,70.2,67.6,100,87,60,30.01,29.93,4,0,7,0.11
2013-8-9,85.3,76.0,72.1,74.5,72.7,71.1,99,91,64,29.95,29.77,7,1,10,0.73
2013-8-10,82.6,73.3,63.6,73.0,64.4,59.3,99,76,48,30.01,29.84,3,0,8,0.00
2013-8-11,82.2,69.7,57.6,67.9,60.5,54.2,98,76,44,30.10,29.98,1,0,3,0.02
2013-8-12,85.7,72.8,65.7,69.2,65.1,58.4,100,80,40,30.00,29.88,1,0,4,0.12
2013-8-13,82.4,70.1,64.6,69.2,66.4,63.7,100,90,59,29.88,29.66,2,0,4,1.14
2013-8-14,73.6,63.2,54.3,65.6,52.3,46.4,98,69,46,30.03,29.75,5,1,12,0.00
2013-8-15,79.2,64.0,51.0,55.9,50.4,44.3,93,66,30,30.13,30.04,1,0,6,0.00
2013-8-16,82.4,64.7,51.0,58.0,50.2,-99.9,99,68,30,30.17,30.10,5,-11,5,0.00
2013-8-17,83.9,67.5,54.3,61.3,57.1,50.9,100,74,36,30.25,30.17,1,0,6,0.00
2013-8-18,72.6,65.3,59.8,65.5,61.0,57.0,95,86,69,30.22,30.11,0,0,2,0.02
2013-8-19,75.4,67.6,59.7,66.1,61.5,58.0,97,82,58,30.11,30.02,1,0,5,0.00
2013-8-20,87.6,73.4,61.6,69.0,63.9,60.1,100,76,42,30.10,30.03,2,0,6,0.01
2013-8-21,89.1,73.1,60.5,69.1,64.1,59.6,100,77,39,30.16,30.01,1,0,1,0.00
2013-8-22,81.8,73.1,68.9,75.0,69.9,66.9,98,90,65,30.03,29.85,2,0,6,0.40
2013-8-23,79.9,69.7,63.8,67.2,62.0,54.3,98,78,45,30.07,29.87,3,0,6,0.00
2013-8-24,80.5,67.1,55.9,57.7,53.1,45.9,93,64,33,30.32,30.08,2,0,6,0.00
2013-8-25,81.2,65.7,51.0,63.4,54.8,49.5,100,73,36,30.39,30.22,3,0,7,0.00
2013-8-26,82.4,70.6,60.8,67.6,61.1,54.4,90,73,56,30.21,29.90,6,1,10,0.02
2013-8-27,89.1,76.5,67.9,68.8,66.5,64.2,95,74,45,29.89,29.82,3,0,8,0.02
2013-8-28,71.9,69.3,66.2,71.9,69.0,65.6,100,99,92,29.86,29.81,1,0,2,2.06
2013-8-29,83.6,71.6,67.4,73.2,68.8,65.4,100,92,61,29.98,29.85,1,0,5,0.05
2013-8-30,82.4,72.5,65.9,71.1,67.7,64.4,98,86,65,29.99,29.82,3,1,8,0.00
2013-8-31,86.1,76.5,70.0,73.6,70.8,68.8,97,83,63,29.83,29.74,3,1,11,0.00
2013-9-1,87.6,76.0,69.0,75.8,71.5,68.7,99,87,59,29.81,29.72,3,0,7,0.56
2013-9-2,78.1,71.6,68.0,75.1,70.9,67.9,100,98,83,29.76,29.66,1,0,3,0.78
2013-9-3,79.5,70.8,62.8,70.2,63.4,55.0,100,80,44,29.87,29.68,4,0,10,0.01
2013-9-4,79.2,67.3,58.5,60.4,57.1,54.8,93,72,44,30.00,29.87,5,1,9,0.00
2013-9-5,78.1,66.4,54.4,61.9,53.8,43.3,88,67,31,30.13,29.92,3,0,8,0.00
2013-9-6,72.4,57.7,46.0,49.2,43.8,36.0,90,65,29,30.26,30.12,2,0,6,0.00
2013-9-7,77.9,61.1,44.7,56.8,49.1,44.2,100,70,34,30.12,29.88,3,0,6,0.00
2013-9-8,80.5,67.8,54.3,65.0,56.5,44.6,91,69,44,30.06,29.81,2,0,7,0.00
2013-9-9,75.4,61.8,46.4,60.7,52.2,44.1,94,73,48,30.22,30.06,2,0,3,0.00
2013-9-10,87.2,74.9,65.1,73.3,68.4,60.6,95,81,59,30.13,30.01,4,1,8,0.00
2013-9-11,93.6,80.3,70.4,76.3,71.9,67.6,98,77,53,30.08,29.94,3,0,7,0.00
2013-9-12,85.9,73.5,65.7,75.2,69.7,65.1,99,89,60,29.95,29.66,7,0,8,0.84
2013-9-13,74.7,64.7,53.7,65.9,58.1,48.3,100,81,49,29.86,29.62,3,0,13,0.03
2013-9-14,61.6,54.5,45.4,48.7,46.1,43.2,93,74,57,30.13,29.86,3,0,7,0.00
2013-9-15,73.3,54.0,41.4,53.8,40.3,-99.9,100,71,40,30.21,30.06,3,-44,6,0.00
2013-9-16,70.9,59.4,52.7,59.4,53.9,45.9,100,84,50,30.23,30.01,2,0,5,0.08
2013-9-17,67.2,52.6,40.9,46.8,41.8,38.6,97,70,37,30.42,30.23,4,0,10,0.00
2013-9-18,71.6,52.0,38.8,51.5,36.9,-99.9,100,69,33,30.34,30.17,2,-48,6,0.00
2013-9-19,76.6,59.0,43.2,56.0,49.0,42.7,100,74,37,30.18,30.04,2,0,7,0.00
2013-9-20,80.3,63.1,49.0,60.8,54.9,48.8,100,78,42,30.07,29.94,1,0,4,0.00
2013-9-21,78.6,64.1,50.4,65.4,57.3,50.1,100,82,45,29.96,29.64,3,0,13,0.50
2013-9-22,67.4,59.1,51.2,61.3,50.3,41.1,100,75,43,29.91,29.64,4,0,12,0.15
2013-9-23,65.6,53.6,45.0,44.9,42.1,39.6,88,67,43,30.04,29.91,2,0,10,0.00
2013-9-24,74.2,55.4,40.5,47.4,42.8,38.3,94,66,33,30.07,29.88,4,0,8,0.00
2013-9-25,74.3,57.1,44.8,49.4,45.3,41.2,92,68,33,29.96,29.85,1,0,7,0.00
2013-9-26,74.2,59.0,47.5,56.4,52.2,47.2,100,81,44,30.07,29.91,2,0,5,0.00
2013-9-27,70.4,58.5,48.8,55.6,51.4,47.6,99,80,48,30.24,30.07,1,0,6,0.00
2013-9-28,72.8,60.3,52.1,54.2,51.2,43.6,98,76,39,30.30,30.21,1,0,5,0.00
2013-9-29,73.3,57.8,47.8,56.1,51.6,47.6,100,83,45,30.21,30.05,1,0,5,0.00
2013-9-30,75.4,59.3,45.8,57.1,50.3,45.2,100,77,36,30.08,29.95,2,0,5,0.00
2013-10-1,79.5,64.3,49.7,59.7,54.4,49.2,99,73,44,30.01,29.89,6,0,6,0.00
2013-10-2,83.4,69.0,55.3,60.9,57.8,53.9,97,70,43,29.99,29.90,6,1,12,0.00
2013-10-3,81.0,67.1,55.8,63.4,58.8,54.2,99,77,44,30.10,29.99,1,0,4,0.00
2013-10-4,84.7,70.7,58.8,67.8,62.6,58.6,100,78,45,30.04,29.94,4,0,12,0.00
2013-10-5,85.9,72.3,62.2,66.5,64.3,61.9,99,78,47,30.05,29.95,2,0,5,0.01
2013-10-6,67.0,65.2,63.6,66.4,64.2,63.2,99,97,91,30.02,29.95,1,0,3,0.00
2013-10-7,73.1,63.4,54.3,70.2,61.4,44.4,100,93,68,29.98,29.70,10,1,21,0.54
2013-10-8,65.9,55.0,45.8,47.1,44.4,41.4,92,69,43,30.30,29.98,3,0,10,0.01
2013-10-9,59.1,51.6,44.4,46.2,43.4,39.4,86,74,52,30.37,30.26,3,0,8,0.00
2013-10-10,54.4,52.2,49.1,53.6,49.5,44.4,98,91,75,30.25,30.04,3,1,7,0.34
2013-10-11,61.4,57.5,53.5,60.6,55.6,51.4,99,94,86,30.05,29.98,2,0,8,0.44
2013-10-12,71.7,62.2,54.4,57.7,48.2,36.8,90,63,37,30.21,30.03,5,1,11,0.00
2013-10-13,67.0,58.6,51.5,53.6,49.8,47.3,93,74,53,30.34,30.21,4,1,10,0.00
2013-10-14,71.1,55.8,44.8,52.9,47.8,44.0,100,79,38,30.34,30.20,1,0,3,0.00
2013-10-15,73.8,56.6,43.4,54.7,45.7,33.7,100,72,37,30.23,30.08,2,0,5,0.00
2013-10-16,64.6,56.1,48.8,57.2,52.4,39.7,99,88,68,30.08,29.89,0,0,2,0.00
2013-10-17,71.2,63.6,58.0,62.7,59.8,56.5,99,88,65,29.89,29.65,6,0,10,0.03
2013-10-18,63.8,56.7,49.1,60.6,43.4,38.6,91,62,43,29.97,29.67,9,4,20,0.00
2013-10-19,61.4,50.8,38.9,52.9,43.6,37.9,99,78,48,29.97,29.74,4,0,6,0.09
2013-10-20,60.8,51.2,43.5,50.2,37.3,32.6,91,61,36,30.05,29.75,8,3,16,0.00
2013-10-21,65.9,51.0,36.8,44.2,37.5,34.3,95,64,32,30.14,29.95,7,1,11,0.00
2013-10-22,60.9,50.8,43.1,51.0,41.5,28.1,100,73,40,29.95,29.75,7,1,11,0.00
2013-10-23,54.7,43.8,36.2,39.0,33.3,29.8,87,67,47,29.80,29.62,3,0,8,0.00
2013-10-24,50.9,41.9,35.8,33.9,29.4,23.4,85,63,35,30.02,29.77,9,4,18,0.00
2013-10-25,51.9,42.1,34.6,33.1,29.6,25.8,80,62,42,30.22,30.02,7,3,11,0.00
2013-10-26,53.8,43.5,32.5,31.1,28.5,26.0,82,57,35,30.22,29.87,8,3,16,0.00
2013-10-27,55.2,47.5,41.4,34.2,30.1,27.0,65,51,39,30.12,29.85,8,2,18,0.00
2013-10-28,59.2,45.9,30.9,34.0,30.3,26.9,89,57,32,30.28,30.11,5,1,14,0.00
2013-10-29,58.8,46.2,36.8,34.4,32.8,30.9,82,61,37,30.39,30.28,1,0,7,0.00
2013-10-30,57.7,45.5,38.1,51.3,41.8,33.3,97,87,73,30.33,30.15,0,0,3,0.00
2013-10-31,64.3,57.5,49.7,59.1,54.7,48.6,99,91,74,30.19,29.75,4,1,19,0.03
2013-11-1,69.2,62.9,54.1,62.9,55.5,46.2,95,79,48,29.75,29.49,10,3,27,0.24
2013-11-2,65.6,55.0,47.5,50.8,41.9,34.7,89,63,40,29.77,29.60,6,1,18,0.00
2013-11-3,49.5,42.7,30.2,41.1,28.8,17.0,79,59,37,30.45,29.77,5,2,11,0.00
2013-11-4,47.2,34.8,25.2,20.4,16.7,10.8,71,50,25,30.64,30.45,5,0,13,0.00
2013-11-5,56.5,43.5,30.6,40.4,32.5,19.9,85,66,50,30.64,30.45,2,0,4,0.00
2013-11-6,63.5,52.8,43.5,50.3,44.8,39.8,89,75,51,30.47,30.03,4,0,8,0.00
2013-11-7,58.0,51.2,40.1,55.8,46.7,32.4,96,85,67,30.03,29.77,7,2,11,0.14
2013-11-8,47.3,40.5,35.2,32.8,26.9,23.7,73,59,43,30.23,29.94,9,4,14,0.00
2013-11-9,49.4,41.0,33.6,32.6,25.9,21.8,68,56,37,30.29,29.96,6,2,12,0.00
2013-11-10,54.7,46.1,38.4,32.7,29.0,24.3,73,52,35,30.07,29.85,11,4,18,0.00
2013-11-11,50.9,45.2,36.6,32.9,28.0,23.9,63,51,41,30.22,29.94,7,3,12,0.00
2013-11-12,48.8,34.9,26.2,34.2,20.7,13.0,82,56,43,30.32,29.91,7,3,14,0.00
2013-11-13,38.9,30.5,24.1,18.1,13.1,8.8,65,49,33,30.40,30.28,7,2,14,0.00
2013-11-14,51.6,39.2,28.3,20.1,14.4,9.1,64,40,19,30.28,30.17,10,3,15,0.00
2013-11-15,56.3,43.9,31.4,27.8,20.9,15.5,64,42,20,30.23,30.13,4,0,7,0.00
2013-11-16,58.9,47.9,39.2,46.2,40.0,26.7,97,77,48,30.31,30.22,2,0,5,0.07
2013-11-17,62.8,59.8,55.5,57.2,54.7,53.2,100,83,72,30.10,29.71,5,1,10,0.03
2013-11-18,61.9,56.2,45.8,60.3,38.5,22.7,97,56,29,29.81,29.58,12,5,21,0.21
2013-11-19,46.3,40.1,29.0,26.7,22.5,19.1,70,50,39,30.35,29.81,8,4,15,0.00
2013-11-20,45.6,34.1,28.1,20.6,12.7,2.4,71,44,19,30.59,30.35,4,1,10,0.00
2013-11-21,49.1,37.8,23.7,37.8,24.8,10.5,74,59,48,30.59,30.36,3,0,8,0.00
2013-11-22,55.2,46.9,45.6,48.1,37.1,-99.9,96,80,73,30.36,29.92,6,-53,13,0.04
2013-11-23,51.2,38.4,26.6,45.3,23.9,4.0,82,57,39,30.08,29.92,9,5,15,0.00
2013-11-24,26.5,22.5,19.5,5.2,0.7,-2.9,49,38,29,30.42,30.06,12,6,17,0.00
2013-11-25,33.6,27.2,18.4,13.5,9.6,4.4,70,48,35,30.50,30.32,5,2,11,0.00
2013-11-26,42.1,32.1,29.4,42.1,21.6,13.3,100,67,50,30.32,29.67,3,0,6,0.67
2013-11-27,56.3,41.1,32.1,56.3,39.5,19.4,100,94,59,29.69,29.39,9,3,16,0.90
2013-11-28,33.0,29.6,27.1,17.1,12.9,9.8,63,50,38,30.46,30.20,9,4,18,0.00
2013-11-29,36.8,28.3,22.8,21.1,17.2,14.6,76,63,48,30.73,30.45,4,0,11,0.00
2013-11-30,35.2,26.9,17.7,25.5,17.1,9.8,80,67,51,30.75,30.36,2,0,7,0.00
2013-12-1,47.9,35.7,26.2,29.3,26.4,23.4,92,70,48,30.36,30.00,2,0,5,0.00
2013-12-2,46.0,38.3,33.7,30.8,28.8,25.7,82,69,54,30.00,29.86,1,0,2,0.00
2013-12-3,52.5,40.8,34.3,35.0,31.6,29.4,87,71,44,29.99,29.86,3,0,6,0.00
2013-12-4,51.0,41.8,32.0,42.4,36.0,30.5,96,80,60,30.10,29.99,2,0,3,0.00
2013-12-5,56.8,50.2,45.0,56.8,49.9,42.2,100,99,87,30.07,29.89,1,0,3,0.01
2013-12-6,59.2,44.7,34.2,59.2,44.2,33.7,100,98,92,30.15,29.83,6,1,9,0.79
2013-12-7,35.4,32.1,26.8,33.9,26.8,17.6,99,81,62,30.51,30.09,5,1,8,0.03
2013-12-8,28.3,25.3,22.0,26.9,19.4,14.6,98,79,61,30.58,30.34,2,0,5,0.00
2013-12-9,33.7,31.8,27.4,33.7,31.6,26.9,100,99,93,30.34,29.98,5,1,11,0.29
2013-12-10,33.0,29.8,24.1,30.5,25.1,11.4,98,84,55,30.14,29.90,6,2,13,0.00
2013-12-11,30.6,25.4,21.0,15.3,12.3,9.6,66,57,44,30.34,30.14,10,3,14,0.00
2013-12-12,25.3,20.6,14.7,19.0,7.7,1.4,91,58,38,30.37,30.16,7,2,13,0.01
2013-12-13,32.7,24.8,14.0,16.0,9.6,2.2,64,52,43,30.32,30.15,9,3,14,0.00
2013-12-14,28.6,24.0,20.4,27.2,19.5,15.7,99,83,58,30.43,29.74,6,2,11,0.47
2013-12-15,36.1,29.7,23.7,34.0,25.2,18.0,100,85,59,29.84,29.56,9,3,18,0.25
2013-12-16,30.0,23.1,17.1,19.9,7.8,4.1,68,52,38,30.21,29.83,10,3,18,0.00
2013-12-17,23.4,20.1,16.6,20.3,15.3,7.6,90,82,61,30.20,29.95,1,0,3,0.11
2013-12-18,34.6,26.4,15.8,19.8,17.0,12.4,89,69,51,30.18,29.94,10,3,14,0.00
2013-12-19,45.4,32.3,20.7,24.6,20.3,15.5,82,62,41,30.18,30.01,5,1,10,0.00
2013-12-20,52.1,41.8,31.1,35.0,27.4,23.4,75,58,39,30.08,29.95,4,0,7,0.00
2013-12-21,63.5,49.5,39.2,53.5,41.9,32.3,92,76,54,29.98,29.85,5,0,12,0.00
2013-12-22,67.2,61.8,58.5,60.9,57.0,53.5,93,85,71,29.91,29.75,10,3,26,0.02
2013-12-23,59.2,51.6,36.5,57.4,48.7,25.5,100,90,64,30.15,29.86,7,2,18,0.66
2013-12-24,36.4,31.3,22.8,25.7,19.5,12.8,76,62,49,30.38,30.11,10,3,26,0.00
2013-12-25,27.4,21.8,15.3,13.8,7.6,3.5,65,54,41,30.54,30.38,5,1,11,0.00
2013-12-26,33.7,27.3,20.2,25.3,19.4,13.5,88,72,56,30.40,30.17,7,1,12,0.01
2013-12-27,39.8,32.2,25.6,20.6,17.7,15.4,67,55,40,30.36,30.26,7,2,18,0.00
2013-12-28,53.7,40.5,27.8,26.7,22.0,17.3,68,49,31,30.28,30.06,9,2,13,0.00
2013-12-29,43.8,40.3,37.2,40.2,33.0,24.5,100,78,47,30.06,29.44,6,1,12,0.86
2013-12-30,42.5,35.1,24.0,36.3,26.0,11.0,90,70,54,30.16,29.72,8,2,11,0.00
2013-12-31,30.2,23.8,16.9,23.1,12.7,7.3,79,63,49,30.29,30.05,9,2,17,0.00
2014-1-1,34.2,26.8,20.2,19.2,14.6,7.7,67,60,51,30.39,30.20,4,0,5,0.00
2014-1-2,28.3,23.7,13.1,21.8,18.1,10.5,92,80,67,30.20,29.68,4,2,9,0.22